星链-32960 (STARLINK-32960)

导读

STARLINK-32960是美国SpaceX星链星座的一颗卫星,于2025年3月13日发射升空,属于Starlink星座组网的卫星节点。星链系统旨在构建全球覆盖的低轨卫星互联网,该卫星承担着为全球尤其是偏远区域提供高速宽带接入服务的功能,是美国低轨卫星通信网络部署的重要组成部分,进一步完善了星链星座的全球覆盖能力与服务容量。

Basic Information
目录编号:
63197
目录名称:
STARLINK-32960
国际标识:
2025-048Q
轨道中心:
EARTH
卫星名称:
星链-32960
卫星全名:
星链-32960 (STARLINK-32960)
卫星状态:
在轨 (已飞行540 天)
发射日期:
2025-03-13 UTC
国别 :
美国 (US)
星等 :
--
Orbit Information
数据来源 国际轨道数据
星历时间: 2026-09-03T12:05:42+0800
1天前
查看轨道信息
半长轴: 6861.161km
偏心率: 0.0001345
轨道倾角: 43.002°
近地点辐角 261.080°
升交点赤经 163.169°
平近点角 98.990°
近地点: 482.101km
远地点: 483.947km
周期: 94.266分钟
每日圈数: 15.275887
Detailed Information
固有亮度:
5
最大亮度:
2.5
卫星平台:
Starlink V1.0
覆盖范围:
全球
运营商:
太空探索技术公司
运营商所在国:
美国
制造商(研发单位):
太空探索技术公司
制造商所在国:
美国
使用方式:
暂无
Satellite Introduction
Starlink 计划是 SpaceX 推出的全球卫星互联网项目,通过发射低轨道卫星,为全球尤其是偏远地区提供高速、低延迟的互联网服务。自 2019 年起,Starlink 已部署数千颗卫星,旨在缩小全球数字鸿沟,推动互联网普及。该项目还为军事、航空等行业提供通信支持,带来广泛经济效益。
2D Orbit Map
3D Orbit Map
Orbit Altitude Analysis Chart
Orbit Inclination Analysis Chart
Orbit Comprehensive Analysis Chart
View Comprehensive Chart
Conjunction Data List
Event ID Objects TCA Miss Dist (km) Collision Risk Probability Collision Risk Index (CRI) Action
CDM_260905-110306-319706-442721
2026-09-05T
11:03:52+0000
1.141 km
极远距离
1.53693E-5 中风险 0.59
CDM_260905-092906-319706-442721
2026-09-05T
09:29:40+0000
1.854 km
极远距离
3.171163E-6 低风险 0.45
CDM_260906-124706-319706-733521
2026-09-06T
12:47:52+0000
2.039 km
极远距离
2.10954E-6 低风险 0.41
CDM_260903-035105-321306-319721
2026-09-03T
03:51:08+0000
2.426 km
极远距离
1.765956E-6 低风险 0.4